Location: Unspecified
(0.0000°N, 0.0000°E)
Time: 23:41:54
(UTC+00:00)

Explorer 7 - All Passes

Search period start: 28 May 2022 00:00
Search period end: 07 June 2022 00:00
Orbit: 482 x 670 km, 50.3° (Epoch: 28 May)

Date Brightness Start Highest point End Pass type
(mag) Time Alt. Az. Time Alt. Az. Time Alt. Az.
28 May - 07:37:21 10° SSW 07:41:34 39° SE 07:45:31 10° ENE daylight
28 May - 09:19:55 10° W 09:21:44 12° NW 09:23:30 10° NNW daylight
28 May - 19:38:13 10° NNW 19:42:12 53° NE 19:46:27 10° SE visible
29 May - 07:40:04 10° SW 07:44:35 81° SE 07:48:48 10° NE daylight
29 May - 19:41:07 10° NW 19:45:10 72° SW 19:49:32 10° SSE visible
30 May - 06:05:43 10° SSE 06:07:09 11° SE 06:08:33 10° ESE daylight
30 May - 07:43:13 10° SW 07:47:34 48° NW 07:51:38 10° NNE daylight
30 May - 18:06:07 10° NNE 18:08:02 13° NE 18:10:01 10° E daylight
30 May - 19:44:28 10° WNW 19:48:11 33° SW 19:52:08 10° SSE visible
31 May - 06:06:42 10° S 06:10:14 22° SE 06:13:37 10° ENE daylight
31 May - 07:46:51 10° WSW 07:50:30 24° NW 07:53:58 10° N daylight
31 May - 18:07:39 10° N 18:11:00 26° NE 18:14:30 10° ESE daylight
31 May - 19:48:29 10° W 19:51:15 17° SW 19:54:07 10° S visible
01 Jun - 06:08:53 10° SSW 06:13:15 41° SE 06:17:23 10° ENE daylight
01 Jun - 07:51:31 10° W 07:53:27 13° NW 07:55:21 10° NNW daylight
01 Jun - 18:10:04 10° NNW 18:13:55 54° NE 18:18:02 10° SE daylight
02 Jun - 06:11:36 10° SW 06:16:14 84° SE 06:20:36 10° NE daylight
02 Jun - 18:12:57 10° NW 18:16:52 68° SW 18:21:03 10° SSE daylight
03 Jun - 04:36:52 10° SSE 04:38:45 12° SE 04:40:38 10° ESE visible
03 Jun - 06:14:42 10° SW 06:19:10 47° NW 06:23:22 10° NNE daylight
03 Jun - 16:37:53 10° NNE 16:39:42 13° NE 16:41:35 10° E daylight
03 Jun - 18:16:18 10° WNW 18:19:51 31° SW 18:23:35 10° S visible
04 Jun - 04:38:03 10° S 04:41:48 23° SE 04:45:23 10° ENE visible
04 Jun - 06:18:20 10° WSW 06:22:05 24° NW 06:25:40 10° N daylight
04 Jun - 16:39:22 10° N 16:42:37 26° NE 16:46:02 10° ESE daylight
04 Jun - 18:20:22 10° W 18:22:51 16° SW 18:25:26 10° SSW visible
05 Jun - 04:40:16 10° SSW 04:44:47 43° SE 04:49:04 10° NE visible
05 Jun - 06:22:54 10° W 06:25:00 13° NW 06:27:02 10° NNW daylight
05 Jun - 16:41:46 10° NNW 16:45:32 56° NE 16:49:30 10° SE daylight
06 Jun - 04:42:57 10° SW 04:47:43 87° SE 04:52:13 10° NE visible
06 Jun - 16:44:37 10° NW 16:48:26 64° SW 16:52:27 10° SSE daylight
